Temperature
18 18 18 17 17 17 17 17 17 17 17 17 17 17 17 17 17 18 18 18 18 17 17 17 17 17 18 18 18 18 18 18 18 17 17 17 17 17 17 17 17 17 17
18 18 17 17 17 17 17 17 17 17 17 17 17 17 17 17 17 17 17 17 17 17 17 17 17 17 17 17 18 18 18 18 18 18 17 17 17 17 17 17 17 17 17
17 17 17 17 17 17 17 17 17 17 17 17 17 17 17 17 17 17 17 17 17 17 17 17 17 17 17 17 17 18 18 18 18 18 18 17 17 17 17 17 17 17 17
17 17 17 17 17 16 16 16 16 16 16 16 16 16 16 17 17 17 17 17 17 17 17 17 17 17 17 17 17 17 17 18 18 18 18 17 17 17 17 17 17 17 17
17 17 17 16 16 16 16 16 16 16 16 16 16 16 16 16 16 17 17 17 17 17 17 17 17 17 17 17 17 17 17 17 17 18 17 17 17 17 17 17 17 17 17
17 16 16 16 16 16 16 16 15 15 15 15 15 16 16 16 16 16 17 17 17 17 17 17 17 17 17 17 17 17 17 17 17 17 17 17 17 17 17 17 17 17 17
16 16 16 16 15 15 15 15 15 15 15 15 15 15 16 16 16 16 16 17 17 17 17 17 17 17 17 17 17 17 17 17 17 17 17 17 17 17 17 17 17 17 17
16 16 15 15 15 15 15 14 14 14 14 14 14 14 15 15 16 16 16 16 16 16 16 16 17 17 17 17 17 17 17 16 17 17 17 17 17 17 17 17 17 17 17
15 15 15 15 15 14 14 14 14 14 14 14 14 14 14 14 14 15 16 16 16 16 16 16 16 16 17 17 17 17 16 16 16 16 17 17 17 17 17 17 17 17 17
15 15 15 14 14 14 14 14 14 13 13 13 13 13 13 13 13 14 15 15 15 16 16 16 16 16 16 16 16 17 16 16 16 16 16 16 16 16 16 17 17 17 17
15 14 14 14 14 14 14 13 13 13 13 13 13 13 13 13 13 13 13 14 15 15 15 15 16 16 16 16 16 16 16 16 16 16 16 16 16 16 16 16 16 16 16
14 14 14 14 13 13 13 13 13 13 13 12 12 12 12 12 12 12 13 13 14 14 15 15 15 16 16 16 16 16 16 16 16 16 16 16 16 16 16 16 16 16 16
14 14 14 13 13 13 13 13 12 12 12 12 12 12 12 12 12 12 12 12 13 13 14 15 15 15 15 15 16 16 16 16 16 16 16 16 16 16 16 16 16 16 16
13 13 13 13 13 13 12 12 12 12 12 12 12 12 12 12 12 12 12 12 12 13 13 14 14 14 15 15 15 15 15 15 15 15 16 16 16 16 15 15 15 16 16
13 13 13 13 13 12 12 12 12 12 12 11 11 11 11 12 11 11 11 11 11 11 12 13 14 14 14 14 14 14 15 15 15 15 15 15 15 15 15 15 15 15 15
13 13 13 13 13 12 12 12 12 11 11 11 11 11 11 11 11 11 11 11 11 11 11 12 13 13 13 14 14 14 14 14 14 15 15 15 15 15 15 15 15 15 15
13 13 13 12 12 12 12 12 11 11 11 11 11 11 11 11 11 11 11 11 11 11 11 12 12 12 13 13 13 13 14 14 14 14 14 14 15 15 15 15 15 15 15
13 13 13 12 12 12 12 11 11 11 11 11 11 11 11 11 11 11 11 11 11 11 11 11 12 12 12 12 13 13 13 13 13 14 14 14 14 14 14 15 15 15 15
13 13 13 12 12 12 11 11 11 11 11 11 11 11 11 10 10 10 10 10 11 11 10 11 11 11 12 12 12 12 13 13 13 13 13 14 14 14 14 14 14 14 14
13 13 12 12 12 12 11 11 11 11 11 10 10 10 10 10 10 10 10 10 10 10 10 10 10 11 11 12 12 12 12 13 13 13 13 13 13 14 14 14 14 14 14
13 13 12 12 12 12 12 11 11 11 10 10 10 10 10 10 10 10 10 10 10 10 10 10 10 10 11 11 11 11 12 12 12 12 13 13 13 13 13 14 14 14 14
13 13 13 12 12 12 11 11 11 11 11 10 10 10 10 10 10 10 9 9 9 9 9 9 10 10 10 10 11 11 11 11 11 12 12 13 13 13 13 13 14 14 14
14 13 13 12 12 12 12 11 11 11 11 11 10 10 10 10 10 9 9 9 9 9 9 9 9 10 10 10 10 10 10 11 11 11 11 12 12 12 13 13 13 13 13
14 13 13 13 12 12 12 11 11 11 11 11 10 10 10 10 10 9 9 9 9 9 9 9 9 9 10 10 10 10 10 10 10 11 11 11 12 12 12 12 13 13 13
14 13 13 13 13 12 12 12 11 11 11 11 10 10 10 9 9 9 9 9 9 9 9 9 9 9 9 9 9 9 9 9 10 10 11 11 11 11 12 12 12 13 13
14 14 13 13 13 12 12 12 11 11 11 11 10 10 10 9 9 9 9 9 9 9 9 9 9 9 9 9 9 9 9 9 9 10 10 10 11 11 11 12 12 12 12
Wind_Speed
2 3 3 3 4 4 4 3 3 4 4 4 5 5 5 7 8 8 7 13 18 19 20 21 22 22 23 23 22 22 21 21 20 20 20 19 19 18 18 17 17 17 16
4 3 2 2 2 4 4 3 3 2 2 2 3 4 5 6 7 8 9 14 19 21 22 22 22 23 24 24 24 24 23 23 22 22 21 21 21 20 19 19 18 18 18
5 4 2 1 2 3 2 2 1 1 1 2 3 3 4 5 6 8 10 13 16 21 23 22 24 25 25 25 25 25 25 24 24 24 23 23 23 22 21 21 20 19 19
6 4 2 1 1 1 1 1 1 0 1 2 3 4 3 3 5 7 8 11 14 16 20 24 26 27 27 26 26 26 26 26 26 26 25 25 24 24 23 22 22 21 21
6 5 2 1 2 2 1 0 1 1 1 2 3 4 3 4 4 5 6 10 13 15 16 20 25 27 27 26 27 27 28 28 28 27 27 26 26 26 25 25 24 23 22
7 5 3 2 3 3 2 2 1 0 1 2 3 4 4 5 4 5 6 7 10 13 16 16 18 21 26 27 27 28 28 29 29 29 29 28 28 27 27 27 26 25 24
6 5 3 2 3 2 2 2 1 1 2 1 2 4 4 4 5 5 4 4 5 9 12 14 15 16 17 24 27 27 28 29 30 30 30 30 30 29 29 28 28 27 26
6 5 4 3 3 3 3 3 2 1 2 2 1 2 4 5 4 3 2 3 4 4 5 10 12 14 15 15 18 25 28 29 30 30 31 31 31 31 30 30 30 29 28
3 4 4 3 3 3 2 2 2 2 1 2 1 2 0 3 4 4 3 3 3 2 3 4 7 11 14 14 15 19 26 29 30 30 31 32 32 32 32 31 31 30 30
0 2 3 4 3 2 2 1 2 1 1 1 2 0 2 4 2 4 4 4 4 3 4 4 3 6 10 11 13 16 20 24 27 29 30 32 33 33 33 33 32 32 31
3 2 3 3 2 2 1 1 1 1 1 2 2 2 1 1 2 2 4 5 5 4 4 4 3 4 6 9 11 13 16 18 21 23 26 29 31 33 34 34 34 33 32
3 3 3 3 2 2 1 1 1 1 1 2 2 2 2 2 2 2 3 4 5 5 4 3 3 3 5 6 9 11 13 14 16 18 20 24 28 31 33 34 35 35 34
1 1 2 1 1 1 2 1 1 2 2 3 3 3 3 4 3 3 3 4 4 4 4 3 3 3 5 6 7 10 11 11 13 16 17 19 23 27 31 33 34 35 35
2 1 1 1 1 2 2 1 2 3 3 3 4 4 3 4 3 4 4 3 3 4 3 5 3 3 4 6 8 10 9 11 12 13 15 17 19 22 26 29 31 33 34
2 2 1 1 2 2 2 2 3 4 3 4 5 5 4 4 4 4 4 4 4 4 5 5 4 4 4 6 8 8 8 10 11 12 13 14 17 19 22 25 28 30 32
2 2 2 2 3 3 3 3 3 4 4 4 4 4 4 4 4 4 4 4 4 5 5 4 4 5 4 5 8 8 9 11 11 11 13 14 15 17 19 22 25 27 29
3 3 3 3 4 4 4 3 4 5 5 5 5 4 5 5 4 4 4 4 4 4 5 5 4 4 4 6 6 7 9 9 10 12 13 15 16 17 18 20 22 24 26
4 4 4 4 4 5 4 5 6 6 5 6 6 5 6 5 5 5 4 5 5 5 5 7 4 4 5 6 6 5 5 7 8 12 14 15 16 17 18 19 20 22 25
4 4 4 5 5 5 6 6 6 6 6 6 6 6 6 6 6 5 5 6 5 6 5 5 5 4 4 4 4 5 5 4 6 10 12 14 15 16 17 18 19 21 23
5 5 5 6 6 6 6 6 6 6 6 6 6 6 7 7 7 7 6 7 6 6 5 5 5 5 5 4 3 4 4 4 4 5 7 9 12 14 15 17 18 20 22
6 6 5 6 6 5 6 6 5 6 6 6 7 7 7 9 11 9 7 6 6 5 5 5 5 4 4 4 4 3 4 4 4 3 3 4 4 5 8 12 15 17 20
5 5 6 6 6 6 8 10 8 6 6 7 7 7 8 9 11 12 13 11 10 8 7 6 5 6 7 6 5 4 3 3 4 3 3 4 3 5 5 6 10 13 16
5 6 6 6 7 9 12 13 12 8 7 7 8 7 7 8 9 7 10 11 11 13 13 9 8 9 8 7 6 5 5 5 5 4 2 4 3 4 3 6 9 12 14
6 6 7 7 7 9 13 13 13 8 7 8 8 8 8 9 10 9 8 8 8 9 10 9 9 10 10 8 8 7 7 5 4 3 4 4 3 3 2 3 8 10 12
6 6 6 7 8 10 13 13 12 6 7 8 8 8 8 9 12 12 8 8 9 9 11 13 13 13 14 13 10 5 5 4 5 4 4 4 3 2 2 3 4 8 9
7 7 7 8 9 10 12 14 12 5 7 7 7 7 10 11 12 10 7 7 9 9 8 8 8 9 10 10 12 9 8 6 5 5 5 5 3 3 2 2 2 3 4
Wind_Direction
146 148 161 173 185 189 194 208 216 219 221 230 226 220 219 225 225 215 217 206 203 202 199 201 203 202 201 200 198 196 195 194 192 190 188 187 186 184 183 182 180 177 175
139 130 124 139 182 194 198 208 217 215 227 230 236 226 225 229 229 218 216 211 208 208 208 208 209 210 208 206 204 202 201 199 197 195 194 192 191 190 190 189 187 185 183
133 124 126 138 178 186 185 191 213 191 236 242 251 247 237 234 233 224 219 212 213 217 218 217 218 216 214 211 210 208 206 204 201 199 198 197 196 195 194 194 193 191 190
137 131 133 137 174 136 128 139 136 161 274 282 279 273 260 246 243 239 228 219 217 220 222 223 222 221 220 217 215 213 210 208 206 203 203 202 200 199 199 199 198 196 196
145 140 136 120 92 83 54 62 101 144 266 287 281 274 272 262 253 252 240 232 226 224 223 226 226 225 224 223 221 219 215 213 210 208 207 206 205 203 202 203 202 201 200
140 135 122 93 82 68 35 22 2 301 246 270 290 295 281 270 264 255 246 242 233 229 226 226 228 230 229 228 226 224 221 217 215 213 211 210 209 207 205 205 205 205 204
138 128 116 98 86 80 47 12 6 345 320 342 360 325 311 287 272 261 255 251 246 242 233 227 225 225 230 232 231 228 226 223 219 217 215 213 212 210 208 208 208 208 207
138 140 137 128 112 93 56 39 43 28 338 22 73 4 338 334 328 300 291 268 266 258 242 236 227 224 226 227 230 230 229 228 225 221 219 216 214 212 211 210 210 210 210
138 149 155 142 129 114 93 56 76 84 341 333 72 137 141 287 313 319 323 316 308 281 262 248 232 227 225 225 226 229 231 231 229 227 225 221 217 214 213 212 212 212 212
354 169 154 145 138 130 124 111 107 113 123 313 324 246 199 203 244 309 317 320 321 303 293 281 264 238 229 226 227 228 233 233 232 231 230 227 222 217 215 214 215 215 214
13 65 121 129 132 134 138 119 73 78 158 202 246 280 295 273 205 213 292 317 325 306 295 281 269 258 240 229 227 230 234 235 235 236 235 232 227 222 219 217 218 218 217
22 45 91 110 130 141 166 204 228 266 255 243 237 227 223 243 253 233 259 292 299 296 298 289 283 271 262 245 235 231 233 235 238 240 241 239 233 227 224 221 221 221 220
19 11 74 106 146 207 217 209 227 263 260 255 251 245 234 228 221 211 226 265 283 294 303 302 284 284 277 264 250 240 238 235 237 241 243 243 240 232 227 225 224 223 222
203 197 141 166 248 256 253 236 242 258 254 256 263 257 252 250 230 217 216 230 285 298 296 285 296 277 280 274 263 248 243 240 240 242 244 245 244 236 229 225 225 225 224
198 180 197 246 263 263 261 253 250 263 265 258 261 262 255 254 247 237 223 204 213 264 281 276 280 285 288 281 272 255 246 248 247 247 247 248 246 240 233 227 224 224 224
212 223 254 262 271 273 272 259 257 262 263 265 258 264 264 259 259 252 239 228 209 215 251 262 260 275 292 290 279 264 257 254 249 247 247 248 247 243 238 231 226 224 223
214 223 236 246 258 263 263 254 254 260 259 266 270 264 266 263 262 263 255 244 232 210 244 269 260 272 277 278 282 272 265 252 250 247 247 248 248 245 239 234 230 227 224
217 225 231 241 252 254 252 246 254 258 252 258 264 263 267 271 263 260 256 253 248 231 228 261 273 273 267 266 266 265 259 252 247 251 249 248 247 246 241 236 233 229 225
226 234 233 240 248 253 253 250 245 250 248 249 250 250 256 259 261 259 256 254 254 256 230 239 262 262 268 269 274 274 263 256 254 252 251 252 250 247 244 239 235 231 227
226 237 239 242 246 249 251 250 246 246 249 251 251 248 249 245 248 252 257 251 250 253 248 245 256 263 265 270 262 267 278 260 257 257 251 252 251 248 244 239 236 231 226
231 233 240 249 252 252 247 236 236 242 244 255 259 256 255 255 251 248 252 246 243 243 244 244 252 261 263 265 257 249 258 270 265 241 253 254 247 246 242 237 233 230 226
239 239 243 248 255 256 249 240 234 239 243 247 256 261 265 266 265 263 261 256 239 233 233 234 243 244 251 246 247 247 247 258 275 252 223 258 226 243 240 234 232 227 226
234 242 248 249 253 258 260 259 252 237 237 243 247 254 266 269 268 264 268 272 264 251 235 226 233 240 243 238 234 245 237 230 239 238 211 255 236 240 240 239 231 228 228
232 242 248 250 253 261 260 258 257 242 238 244 244 245 251 263 267 258 260 265 261 259 250 239 233 240 242 237 227 232 236 243 252 245 198 237 241 239 241 238 232 225 225
236 241 246 249 253 263 263 258 254 235 242 251 251 250 247 255 263 263 255 257 265 267 262 249 238 240 244 243 232 227 231 228 250 248 207 212 225 224 235 243 233 223 220
236 244 252 250 249 257 263 259 248 222 241 254 259 257 254 255 259 260 243 243 256 263 266 272 262 256 252 253 244 224 216 219 226 243 214 197 206 190 239 247 227 218 216
Height
1550 1550 1551 1551 1552 1552 1553 1553 1554 1555 1555 1556 1557 1557 1558 1559 1560 1561 1562 1563 1563 1565 1566 1568 1570 1571 1573 1575 1577 1578 1579 1581 1583 1584 1586 1587 1589 1591 1592 1594 1596 1597 1599
1549 1549 1550 1550 1550 1551 1551 1551 1551 1552 1553 1554 1554 1555 1556 1556 1557 1557 1558 1560 1560 1561 1563 1565 1566 1568 1570 1572 1574 1576 1577 1579 1581 1582 1584 1586 1588 1590 1591 1593 1595 1596 1598
1548 1549 1549 1549 1549 1549 1549 1549 1549 1550 1550 1551 1551 1552 1552 1553 1554 1554 1555 1556 1557 1558 1559 1561 1562 1564 1566 1568 1570 1572 1574 1576 1578 1580 1582 1584 1586 1588 1590 1592 1593 1595 1597
1547 1547 1548 1548 1548 1547 1547 1547 1547 1547 1548 1548 1548 1549 1549 1549 1550 1550 1551 1552 1553 1554 1555 1557 1558 1560 1562 1564 1566 1568 1570 1572 1574 1577 1579 1581 1583 1585 1587 1589 1591 1593 1595
1546 1547 1547 1546 1546 1546 1545 1545 1545 1545 1545 1545 1545 1545 1545 1545 1546 1546 1547 1548 1548 1549 1551 1552 1554 1555 1557 1559 1560 1563 1566 1568 1570 1573 1575 1577 1580 1582 1584 1587 1589 1591 1593
1545 1546 1546 1545 1545 1544 1544 1543 1543 1543 1543 1542 1542 1541 1541 1541 1541 1542 1543 1544 1544 1545 1546 1547 1549 1550 1552 1554 1555 1558 1560 1563 1566 1568 1571 1573 1576 1578 1581 1583 1586 1588 1590
1544 1544 1544 1543 1543 1542 1542 1541 1541 1540 1540 1540 1539 1538 1537 1537 1537 1538 1539 1539 1540 1541 1542 1543 1544 1546 1547 1548 1550 1552 1555 1557 1560 1563 1566 1568 1571 1574 1576 1579 1582 1585 1587
1543 1543 1542 1542 1541 1540 1540 1539 1538 1538 1538 1538 1537 1536 1535 1535 1534 1535 1535 1536 1536 1537 1537 1538 1539 1541 1542 1543 1545 1547 1549 1551 1554 1556 1560 1563 1566 1568 1571 1574 1577 1580 1583
1542 1541 1540 1540 1539 1538 1538 1537 1537 1536 1536 1536 1536 1536 1535 1533 1533 1532 1533 1533 1533 1533 1534 1534 1535 1536 1537 1538 1540 1542 1543 1545 1548 1550 1553 1556 1559 1563 1566 1569 1572 1575 1578
1540 1539 1538 1538 1537 1537 1536 1536 1535 1534 1534 1534 1534 1534 1534 1533 1533 1530 1530 1530 1530 1531 1531 1531 1531 1532 1533 1534 1535 1537 1538 1540 1542 1544 1546 1549 1552 1556 1559 1563 1566 1569 1573
1537 1537 1536 1536 1535 1535 1534 1533 1533 1532 1531 1531 1531 1530 1530 1530 1530 1529 1527 1526 1527 1527 1528 1528 1528 1529 1529 1530 1531 1532 1533 1534 1536 1538 1540 1542 1545 1548 1552 1556 1559 1563 1566
1535 1534 1534 1534 1533 1532 1531 1531 1530 1529 1529 1528 1527 1527 1527 1527 1527 1526 1525 1523 1523 1523 1524 1524 1524 1525 1525 1526 1526 1527 1528 1529 1530 1532 1533 1535 1538 1540 1544 1548 1552 1556 1560
1532 1532 1532 1531 1530 1530 1529 1528 1527 1526 1525 1525 1524 1524 1523 1523 1523 1523 1522 1521 1520 1519 1519 1520 1520 1521 1521 1521 1522 1523 1523 1524 1525 1526 1527 1529 1531 1533 1536 1540 1544 1548 1552
1530 1530 1529 1528 1528 1527 1526 1525 1524 1523 1522 1521 1521 1520 1520 1520 1519 1519 1519 1518 1516 1515 1515 1515 1516 1517 1517 1517 1517 1518 1518 1519 1519 1520 1521 1522 1524 1526 1528 1531 1535 1539 1544
1528 1527 1526 1525 1524 1523 1522 1521 1520 1520 1519 1518 1517 1517 1516 1515 1515 1515 1515 1514 1514 1511 1510 1510 1511 1512 1513 1512 1512 1513 1513 1513 1514 1515 1515 1516 1517 1519 1521 1523 1527 1531 1535
1525 1524 1523 1522 1521 1520 1519 1518 1517 1516 1515 1514 1514 1512 1512 1511 1511 1510 1510 1510 1510 1509 1506 1505 1506 1507 1507 1507 1508 1508 1508 1508 1509 1509 1510 1510 1511 1512 1514 1516 1519 1523 1527
1522 1521 1520 1519 1518 1517 1516 1515 1514 1513 1512 1511 1510 1508 1507 1507 1506 1505 1505 1505 1505 1504 1502 1500 1501 1502 1502 1502 1502 1502 1503 1503 1503 1504 1504 1505 1505 1505 1507 1509 1511 1514 1518
1519 1518 1517 1516 1515 1514 1513 1511 1510 1509 1508 1507 1505 1504 1503 1502 1501 1501 1500 1500 1499 1499 1498 1495 1495 1496 1496 1497 1496 1497 1497 1497 1498 1498 1499 1499 1499 1499 1500 1502 1504 1507 1510
1516 1515 1514 1513 1512 1510 1509 1508 1507 1505 1504 1503 1501 1500 1499 1498 1496 1496 1495 1494 1493 1493 1492 1491 1490 1490 1490 1491 1491 1491 1491 1492 1492 1493 1493 1493 1493 1493 1494 1495 1497 1499 1502
1513 1512 1511 1510 1508 1507 1505 1504 1502 1501 1500 1498 1497 1496 1494 1493 1491 1490 1489 1488 1488 1487 1487 1486 1485 1484 1485 1485 1485 1485 1485 1486 1486 1487 1487 1487 1487 1487 1488 1489 1490 1492 1495
1510 1509 1508 1506 1504 1503 1501 1500 1498 1496 1495 1493 1492 1491 1489 1488 1486 1485 1484 1483 1482 1481 1481 1480 1479 1479 1479 1480 1480 1480 1480 1480 1480 1481 1481 1481 1481 1481 1482 1483 1484 1485 1488
1507 1506 1504 1502 1500 1499 1497 1495 1493 1492 1490 1488 1487 1485 1484 1482 1481 1479 1478 1477 1477 1476 1475 1474 1474 1473 1473 1474 1475 1475 1474 1474 1474 1476 1475 1475 1475 1475 1476 1477 1478 1480 1482
1503 1502 1500 1498 1496 1494 1492 1491 1489 1487 1485 1483 1481 1479 1478 1476 1475 1474 1472 1471 1471 1470 1470 1469 1468 1467 1467 1468 1469 1469 1469 1469 1469 1470 1471 1469 1470 1470 1471 1471 1472 1474 1476
1500 1498 1496 1494 1492 1490 1488 1486 1484 1482 1479 1478 1476 1474 1472 1471 1470 1468 1467 1465 1464 1464 1464 1463 1462 1461 1462 1462 1463 1463 1463 1463 1463 1464 1465 1464 1464 1465 1466 1466 1467 1468 1470
1495 1494 1492 1490 1487 1485 1483 1481 1479 1476 1474 1472 1471 1469 1467 1465 1464 1463 1461 1459 1458 1457 1457 1456 1455 1454 1455 1455 1456 1456 1456 1457 1456 1457 1459 1459 1459 1460 1460 1460 1462 1463 1464
1491 1489 1487 1485 1483 1480 1478 1476 1474 1471 1469 1467 1465 1463 1462 1460 1458 1457 1455 1454 1452 1451 1450 1449 1448 1448 1448 1448 1449 1449 1450 1451 1451 1451 1453 1454 1455 1456 1455 1455 1456 1458 1459